Hourly Data Report for August 09, 2020

LYTTON RCS
BRITISH COLUMBIA
Current Station Operator: ECCC - MSC

50°13'28.000" N
121°34'55.000" W
225.00 m
1114746
71765
VLY

Download Data

Hourly Data (August 2020)
Hourly Data Report for August 9, 2020
TIME Temp Definition
°C
Dew Point Definition
°C
Rel Hum Definition
%
Wind Dir Definition
10's deg

Wind Spd Definition
km/h
Visibility Definition
km
Stn Press Definition
kPa
Hmdx Definition


Wind Chill Definition


Weather Definition


00:00 17.9 9.7 59 18 26   99.43     LegendNANA
01:00 17.7 9.7 60 19 21   99.45     LegendNANA
02:00 17.5 9.3 59 18 22   99.51     LegendNANA
03:00 16.7 9.3 62 19 10   99.58     LegendNANA
04:00 15.3 9.1 66 19 2   99.62     LegendNANA
05:00 13.6 9.3 76 36 4   99.69     LegendNANA
06:00 13.2 9.3 77 1 3   99.75     LegendNANA
07:00 13.6 9.4 76 14 3   99.79     LegendNANA
08:00 18.0 8.8 55 15 11   99.81     LegendNANA
09:00 20.6 8.0 44 17 10   99.72     LegendNANA
10:00 22.3 7.5 38 17 6   99.68     LegendNANA
11:00 25.1 6.9 31 17 15   99.56 25   LegendNANA
12:00 27.0 6.6 27 18 17   99.47 27   LegendNANA
13:00 28.0 5.9 25 18 20   99.38 28   LegendNANA
14:00 29.4 6.6 24 18 22   99.28 29   LegendNANA
15:00 30.2 7.2 24 18 22   99.21 30   LegendNANA
16:00 29.7 7.2 24 19 23   99.15 30   LegendNANA
17:00 28.6 7.7 27 19 25   99.11 29   LegendNANA
18:00 26.5 8.2 31 19 26   99.05 27   LegendNANA
19:00 25.6 8.8 35 19 23   99.06 26   LegendNANA
20:00 24.6 9.4 38 20 25   99.10 26   LegendNANA
21:00 23.5 9.9 42 20 29   99.11 25   LegendNANA
22:00 22.3 10.0 45 20 32   99.12     LegendNANA
23:00 21.6 10.0 48 19 33   99.10     LegendNANA

Notes on Data Quality.

Legend

  • E = Estimated
  • M = Missing
  • NA = Not Available*
  • [empty] = Indicates an unobserved value
Date modified: